When you browse on this site, cookies collect data to enhance your experience and personalize the content and advertising you see.
Visit our Privacy Policy to learn more. By continuing to use the site, you agree to this use of cookies and data.
  • In Hungary
  • List of Countries
  • For 7 days
  • Water Temperature
  • Satellite Maps
  • Weather Map
  • News
  • Weather Widgets
  • user-avatar
    Login

    Hourly Weather Lexington

    Today, 20 February, Wednesday

    Time Temperature Precipitation Wind Pressure Humidity
    00:00 +1°C° 0.7 mm 3 mps 754 mmHg 97%
    01:00 0°C° 0 mm 3 mps 753 mmHg 97%
    02:00 0°C° 0.6 mm 3 mps 753 mmHg 97%
    03:00 0°C° 0.6 mm 3 mps 752 mmHg 97%
    04:00 0°C° 0.6 mm 3 mps 751 mmHg 96%
    05:00 +1°C° 0.4 mm 2 mps 751 mmHg 97%
    06:00 +1°C° 0.4 mm 2 mps 751 mmHg 97%
    07:00 +1°C° 0 mm 2 mps 751 mmHg 96%
    08:00 +1°C° 0.7 mm 2 mps 750 mmHg 96%
    09:00 +1°C° 0.7 mm 2 mps 750 mmHg 96%
    10:00 0°C° 0.7 mm 3 mps 750 mmHg 97%
    11:00 +1°C° 0.3 mm 2 mps 750 mmHg 97%
    12:00 +2°C° 0.3 mm 2 mps 749 mmHg 97%
    13:00 +2°C° 0.3 mm 2 mps 748 mmHg 97%
    14:00 +2°C° 0.1 mm 2 mps 748 mmHg 98%
    15:00 +3°C° 0.1 mm 2 mps 747 mmHg 98%
    16:00 +3°C° 0.1 mm 2 mps 746 mmHg 99%
    17:00 +4°C° 0 mm 1 mps 746 mmHg 99%
    18:00 +5°C° 0 mm 1 mps 746 mmHg 99%
    19:00 +5°C° 0 mm 1 mps 745 mmHg 99%
    20:00 +6°C° 0.1 mm 1 mps 745 mmHg 99%
    21:00 +5°C° 0.1 mm 0 mps 745 mmHg 99%
    22:00 +6°C° 0.1 mm 0 mps 745 mmHg 99%
    23:00 +7°C° 0.2 mm 1 mps 744 mmHg 99%

    Tomorrow, 21 February, Thursday

    Time Temperature Precipitation Wind Pressure Humidity
    00:00 +7°C° 0.2 mm 1 mps 744 mmHg 99%
    01:00 +7°C° 0.2 mm 2 mps 743 mmHg 99%
    02:00 +8°C° 0.6 mm 2 mps 743 mmHg 99%
    03:00 +8°C° 0.6 mm 2 mps 743 mmHg 99%
    04:00 +9°C° 0.6 mm 2 mps 742 mmHg 99%
    05:00 +9°C° 0.5 mm 2 mps 742 mmHg 99%
    06:00 +10°C° 0.5 mm 2 mps 742 mmHg 98%
    07:00 +10°C° 0.5 mm 2 mps 742 mmHg 98%
    08:00 +12°C° 0.8 mm 2 mps 743 mmHg 98%
    09:00 +12°C° 0.8 mm 3 mps 743 mmHg 98%
    10:00 +13°C° 0.8 mm 3 mps 743 mmHg 98%
    11:00 +14°C° 0.9 mm 3 mps 743 mmHg 98%
    12:00 +16°C° 0.9 mm 3 mps 744 mmHg 97%
    13:00 +16°C° 0.9 mm 3 mps 744 mmHg 97%
    14:00 +17°C° 0.3 mm 2 mps 743 mmHg 96%
    15:00 +18°C° 0.3 mm 2 mps 743 mmHg 95%
    16:00 +19°C° 0.3 mm 2 mps 743 mmHg 94%
    17:00 +19°C° 0 mm 1 mps 744 mmHg 95%
    18:00 +18°C° 0 mm 1 mps 744 mmHg 96%
    19:00 +16°C° 0 mm 1 mps 745 mmHg 97%
    20:00 +15°C° 0.1 mm 2 mps 745 mmHg 96%
    21:00 +15°C° 0.1 mm 2 mps 746 mmHg 95%
    22:00 +14°C° 0.1 mm 3 mps 746 mmHg 95%
    23:00 +13°C° 0.3 mm 3 mps 747 mmHg 92%

    Day after tomorrow, 22 February, Friday

    Time Temperature Precipitation Wind Pressure Humidity
    00:00 +12°C° 0.3 mm 3 mps 747 mmHg 89%
    01:00 +11°C° 0.3 mm 3 mps 747 mmHg 87%
    02:00 +10°C° 0.2 mm 3 mps 747 mmHg 86%
    03:00 +10°C° 0.2 mm 3 mps 747 mmHg 85%
    04:00 +9°C° 0.2 mm 2 mps 747 mmHg 84%
    05:00 +9°C° 0.4 mm 3 mps 748 mmHg 84%
    06:00 +9°C° 0.4 mm 3 mps 748 mmHg 84%
    07:00 +9°C° 0.4 mm 3 mps 749 mmHg 85%
    08:00 +9°C° 0.7 mm 3 mps 749 mmHg 88%
    09:00 +9°C° 0.7 mm 3 mps 750 mmHg 90%
    10:00 +9°C° 0.7 mm 3 mps 751 mmHg 93%
    11:00 +9°C° 0.7 mm 3 mps 751 mmHg 93%
    12:00 +8°C° 0.7 mm 3 mps 751 mmHg 93%
    13:00 +8°C° 0.7 mm 3 mps 751 mmHg 93%
    14:00 +7°C° 0.5 mm 3 mps 751 mmHg 92%
    15:00 +7°C° 0.5 mm 3 mps 751 mmHg 92%
    16:00 +5°C° 0.5 mm 3 mps 750 mmHg 92%
    17:00 +5°C° 3 mm 3 mps 751 mmHg 93%
    18:00 +5°C° 3 mm 3 mps 751 mmHg 93%
    19:00 +5°C° 3 mm 3 mps 752 mmHg 94%
    20:00 +5°C° 0.6 mm 3 mps 752 mmHg 94%
    21:00 +5°C° 0.6 mm 3 mps 752 mmHg 94%
    22:00 +5°C° 0.6 mm 3 mps 752 mmHg 93%
    23:00 +5°C° 0.2 mm 3 mps 752 mmHg 93%

    23 February, Saturday

    Time Temperature Precipitation Wind Pressure Humidity
    00:00 +4°C° 0.2 mm 3 mps 752 mmHg 93%
    01:00 +5°C° 0.2 mm 2 mps 752 mmHg 93%
    02:00 +4°C° 0.2 mm 3 mps 751 mmHg 94%
    03:00 +4°C° 0.2 mm 3 mps 750 mmHg 94%
    04:00 +4°C° 0.2 mm 3 mps 750 mmHg 94%
    05:00 +4°C° 1.5 mm 3 mps 750 mmHg 94%
    06:00 +4°C° 1.5 mm 3 mps 750 mmHg 95%
    07:00 +4°C° 1.5 mm 3 mps 750 mmHg 95%
    08:00 +4°C° 0.8 mm 3 mps 750 mmHg 95%
    09:00 +5°C° 0.8 mm 2 mps 750 mmHg 95%
    10:00 +5°C° 0.8 mm 2 mps 750 mmHg 95%
    11:00 +5°C° 0.2 mm 2 mps 749 mmHg 95%
    12:00 +5°C° 0.2 mm 2 mps 749 mmHg 94%
    13:00 +6°C° 0.2 mm 2 mps 748 mmHg 94%
    14:00 +6°C° 0.2 mm 2 mps 747 mmHg 95%
    15:00 +6°C° 0.2 mm 2 mps 747 mmHg 95%
    16:00 +6°C° 0.2 mm 2 mps 746 mmHg 96%
    17:00 +6°C° 0.1 mm 2 mps 745 mmHg 96%
    18:00 +7°C° 0.1 mm 1 mps 745 mmHg 97%
    19:00 +7°C° 0.1 mm 1 mps 745 mmHg 97%
    20:00 +8°C° 0.2 mm 1 mps 744 mmHg 97%
    21:00 +8°C° 0.2 mm 1 mps 744 mmHg 98%
    22:00 +8°C° 0.2 mm 1 mps 743 mmHg 98%
    23:00 +8°C° 0.9 mm 2 mps 742 mmHg 98%

    24 February, Sunday

    Time Temperature Precipitation Wind Pressure Humidity
    00:00 +9°C° 0.9 mm 2 mps 741 mmHg 98%
    01:00 +12°C° 0.9 mm 2 mps 739 mmHg 98%
    02:00 +12°C° 0.3 mm 3 mps 739 mmHg 97%
    03:00 +14°C° 0.3 mm 4 mps 738 mmHg 97%
    04:00 +16°C° 0.3 mm 5 mps 737 mmHg 96%
    05:00 +16°C° 0.2 mm 6 mps 736 mmHg 94%
    06:00 +17°C° 0.2 mm 7 mps 736 mmHg 93%
    07:00 +18°C° 0.2 mm 7 mps 735 mmHg 92%
    08:00 +18°C° 0 mm 7 mps 736 mmHg 80%
    09:00 +18°C° 0 mm 8 mps 736 mmHg 69%
    10:00 +20°C° 0 mm 8 mps 736 mmHg 58%
    11:00 +20°C° 0 mm 8 mps 736 mmHg 53%
    12:00 +20°C° 0 mm 7 mps 736 mmHg 48%
    13:00 +20°C° 0 mm 7 mps 737 mmHg 43%
    14:00 +18°C° 0 mm 7 mps 737 mmHg 43%
    15:00 +17°C° 0 mm 6 mps 737 mmHg 44%
    16:00 +17°C° 0 mm 6 mps 737 mmHg 45%
    17:00 +15°C° 0 mm 5 mps 738 mmHg 48%
    18:00 +13°C° 0 mm 5 mps 739 mmHg 52%
    19:00 +10°C° 0 mm 5 mps 739 mmHg 55%
    20:00 +10°C° 0 mm 4 mps 740 mmHg 56%
    21:00 +7°C° 0 mm 4 mps 741 mmHg 58%
    22:00 +6°C° 0 mm 4 mps 742 mmHg 59%
    23:00 +5°C° 0 mm 3 mps 742 mmHg 59%

    25 February, Monday

    Time Temperature Precipitation Wind Pressure Humidity
    00:00 +5°C° 0 mm 3 mps 742 mmHg 58%
    01:00 +4°C° 0 mm 3 mps 742 mmHg 58%
    02:00 +3°C° 0 mm 3 mps 743 mmHg 58%
    03:00 +3°C° 0 mm 3 mps 743 mmHg 59%
    04:00 +2°C° 0 mm 3 mps 744 mmHg 59%
    05:00 +2°C° 0 mm 3 mps 745 mmHg 60%
    06:00 +2°C° 0 mm 2 mps 745 mmHg 61%
    07:00 +2°C° 0 mm 2 mps 746 mmHg 62%
    08:00 +2°C° 0 mm 3 mps 747 mmHg 56%
    09:00 +4°C° 0 mm 4 mps 748 mmHg 49%
    10:00 +5°C° 0 mm 5 mps 749 mmHg 43%
    11:00 +6°C° 0 mm 5 mps 750 mmHg 40%
    12:00 +8°C° 0 mm 5 mps 750 mmHg 38%
    13:00 +9°C° 0 mm 5 mps 750 mmHg 36%
    14:00 +9°C° 0 mm 5 mps 750 mmHg 35%
    15:00 +10°C° 0 mm 4 mps 751 mmHg 34%
    16:00 +11°C° 0 mm 4 mps 751 mmHg 34%
    17:00 +9°C° 0 mm 3 mps 751 mmHg 38%
    18:00 +7°C° 0 mm 3 mps 752 mmHg 43%
    19:00 +5°C° 0 mm 2 mps 753 mmHg 48%
    20:00 +5°C° 0 mm 2 mps 753 mmHg 50%
    21:00 +4°C° 0 mm 2 mps 754 mmHg 51%
    22:00 +3°C° 0 mm 2 mps 754 mmHg 53%
    23:00 +2°C° 0 mm 2 mps 754 mmHg 55%
    Show more